GAOFEN 9 DEB, 44600

Orbit data source: Space-Track

GAOFEN 9 DEB, 44600 is space debris in SSO originally from a launch on Mon, 14 Sep 2015 UTC launched from the Jiuquan Satellite Launch Center, China (JSC). Debris objects in space refer to the collection of defunct objects orbiting the Earth. Examples of debris include non-operational satellites, rocket bodies, and fragments generated from explosions, collisions, or faulty payload assembly.

Loading next visibility...
Identifier
44600, 2015-047B
Orbit
SSO
Country
Flag of CNCN / PRC
Related business
Manufacturer
Unknown
Mission
Spacecraft
Bus & Motor
Unknown
Mass
Unknown
Launch date (UTC)
2015-09-14 (10 years ago)
Launch vehicle
Unknown
Launch site
Jiuquan Satellite Launch Center, China (JSC)
Object type
Payload
Rocket body
Debris
Shape & HBR
Unknown
Radar Cross Section
Small (<0.1 m²)

Expand to show TLE details & history
Last TLE update: 1 day ago

TLE from 1 day ago
0 GAOFEN 9 DEB
1 44600U 15047B   25258.24145833  .00004008  00000-0  75288-3 0  9998
2 44600  98.1220 186.4762 0157748 207.7029 151.5702 14.57508442525745
Epoch: 2025-09-15T05:47Z
TLE epoch observation values (Epoch: 2025-09-15T05:47:41.999Z)
Latitude
-0.00001°
Longitude
105.10227°
Altitude
802.834 km
Speed
7.4 km/s
True Right ascension
12h 25m 54s
True Declination
0° 00' 00"
Sunlit
Object was in daylight at epoch
Visualization orbit readout
Latitude
Unknown
Longitude
Unknown
Altitude
Unknown
Speed
Unknown
Apparent Right ascension
Unknown
Apparent Declination
Unknown
Sunlit
N/A
Visualization observer readout
Local Sidereal Time
22:19:03
Azimuth
Unknown
Elevation
Unknown
Doppler factor
Unknown
Orbital elements
Apogee altitude
809.94 km
Perigee altitude
586.681 km
Semi-major axis
7,076.447 km
Eccentricity
0.01577
Inclination
98.122°
RAAN
186.4762°
Arg. of periapsis
207.7029°
True anomaly
152.41608°
Mean anomaly
151.5702°
Eccentric anomaly
151.9946°
Mean motion
3.64603 °/min
Orbital period
98.74 mins
BSTAR
0.00075288
Loading maneuver chart data...
Computing Atmospheric mass density...
Loading historical data...
Loading historical data...
Loading historical data...
Loading historical data...
Loading historical data...
Loading historical data...
Loading historical data...
Other satellites on launch #47 in the year 2015 (2015-09-14 UTC)

Documentation

Showing up to 5 results
|